User: anonymous   Login
Location: Unspecified
(0.0000°N, 0.0000°E)
Time: 18:33:13
(UTC+00:00)
Language:

USA 186 - Orbit

View from above orbital plane
View from above orbital plane
View from above satellite
View from above satellite

Ground track
Ground track

The orbit data is extracted from the following two-line orbital elements,

1 28888U 05042A   17144.11364152 0.00032000  00000-0  11754-3 0    04
2 28888  96.8729 183.5874 0124121 198.4241 161.5758 15.76970649    00
Epoch (UTC): 24 May 2017 02:43:38
Eccentricity: 0.0124121
inclination: 96.8729°
perigee height: 255 km
apogee height: 422 km
right ascension of ascending node: 183.5874°
argument of perigee: 198.4241°
revolutions per day: 15.76970649
mean anomaly at epoch: 161.5758°
orbit number at epoch: 0

The dashed part of the orbit path shows where the satellite is in the earth's shadow,  

DLR